Simultaneous Nadir Overpasses (SNOs) Predictions

Prediction of SNOs between NOAA-20 and AQUA Satellite Orbit:

Table of predicted SNOs for the next 14.0 days since TLE Epoch: 4/19/2019
Index Date (NOAA-20) Time (NOAA-20) Lat,Lon (NOAA-20) SZA (NOAA-20 ) Date (AQUA) Time (AQUA) Lat,Lon (AQUA) SZA (AQUA ) Distance(km) Time Diff (sec)
1 04/21/2019 22:13:33 -75.79, -95.07 94.36 04/21/2019 22:13:50 -75.80, -95.00 94.39 2.13 17
2 04/21/2019 23:03:50 77.01, 76.71 84.13 04/21/2019 23:02:51 77.01, 76.64 84.19 1.82 59
3 04/24/2019 13:39:56 75.07,-148.82 85.62 04/24/2019 13:41:03 75.08,-148.77 85.55 1.39 67
4 04/24/2019 14:30:12 -76.46, 23.03 96.07 04/24/2019 14:30:02 -76.46, 22.96 96.05 1.87 10
5 04/27/2019 05:56:35 75.81, -30.79 83.87 04/27/2019 05:57:15 75.80, -30.87 83.86 2.39 40
6 04/27/2019 06:47:02 -76.67, 139.58 97.21 04/27/2019 06:46:24 -76.67, 139.57 97.17 0.39 38
7 04/29/2019 22:13:23 76.11, 86.00 82.66 04/29/2019 22:13:35 76.11, 85.97 82.66 0.83 12
8 04/29/2019 23:03:51 -76.92,-103.67 98.36 04/29/2019 23:02:45 -76.92,-103.64 98.32 0.75 66
9 05/02/2019 13:39:56 -75.08, 31.19 96.91 05/02/2019 13:40:56 -75.09, 31.27 96.98 2.65 60




NCC Satellite Simultaneous Nadir Overpasses (SNOs) Prediction Service
